{"data":{"norad_id":67048,"intl_designator":"2025-294U","name":"STARLINK-35905","alt_names":[],"object_type":"PAYLOAD","status":"ACTIVE","operator":null,"country":"US","launch_date":"2025-12-11","launch_site_code":"AFETR","launch_vehicle":null,"mission":null,"orbit_class":"UNKNOWN","rcs_meters":null,"size_class":null,"mass_kg":null,"dimensions":null,"purposes":["comms"],"wikipedia_slug":null,"has_3d_model":false,"image_url":null,"decayed_at":null,"tle_current":{"epoch":"2026-05-24T21:35:01.171104Z","epoch_age_seconds":84014,"freshness":"FRESH","line1":"1 67048U 25294U   26144.89931911  .00011771  00000+0  43641-3 0  9992","line2":"2 67048  43.0021 327.7620 0001872 274.0638  85.9999 15.27592850 26452","mean_motion":15.2759285,"eccentricity":0.0001872,"inclination_deg":43.0021,"raan_deg":327.762,"arg_perigee_deg":274.0638,"mean_anomaly_deg":85.9999,"bstar":0.00043641,"rev_number":2645,"period_min":94.265955748615,"perigee_km":481.72621195238,"apogee_km":484.29502562085,"semimajor_km":6861.1476187866,"source":"CELESTRAK","updated_at":"2026-05-25T13:38:21.440299Z"}}}